Starlink 30608

operational
NORAD ID: 58091 Int'l Des: 2023-160 Owner: SPXS Country: US Constellation: starlink
LEOCIRCULAR

Starlink 30608について

説明を読み込み中...

リアルタイム位置

3D地球を読み込み中...

次回通過

高度履歴

Altitude vs Time

uPlot chart will show altitude changes over time

軌道要素

1 58091U 23160S 25307.99844435 .00004075 00000-0 31646-3 0 9997
2 58091 43.0045 42.9690 0001069 276.5900 83.4821 15.02546550114012
Epoch: Nov 3, 2025 • Age: 13 hours

現在のステータス

高度 558.4 km
速度 7.58 km/s
衛星直下点 12.16°N, 39.07°W
打ち上げ日 Oct 18, 2023
運用期間 2 years
タイプ internet

技術仕様

分類 Payload
質量 730.00 kg
乾燥質量 700.00 kg
総質量 730.00 kg
長さ 0.30 m
直径 4.10 m
スパン 29.00 m
形状 Box + pan
製造者 SPXS
バスタイプ Starlink V2M
フェーズステータス In Orbit
所有者/国 SPXS/US

大規模コンステレーション

Loading constellations...